Regional Weather Roundup
Issued by NWS Newport/Morehead, NC

Current Version | Previous Version | Text Only | Print | Product List | Glossary Off
Versions: 1 2 3 4 5 6 7 8 9 10 11 12 13 14 15 16 17 18 19 20 21 22 23 24 25 26 27 28 29 30 31 32 33 34 35 36 37 38 39 40 41 42 43 44 45 46 47 48 49 50

000
ASUS42 KMHX 030424
RWRMHX
WEATHER ROUNDUP FOR EASTERN NORTH CAROLINA
NATIONAL WEATHER SERVICE NEWPORT/MOREHEAD CITY NC
1200 AM EDT SUN MAY 03 2015

NOTE: "FAIR" INDICATES FEW OR NO CLOUDS BELOW 12,000 FEET
WITH NO SIGNIFICANT WEATHER AND/OR OBSTRUCTIONS TO VISIBILITY

NCZ015>017-031-032-045>047-102-103-030500-
NORTH COAST

CITY           SKY/WX    TMP DP  RH WIND       PRES   REMARKS
EDENTON        CLEAR     50  48  92 CALM      30.10S
ELIZABETH CITY CLEAR     50  47  89 CALM      30.09S
KITTY HAWK     CLEAR     49  47  90 CALM      30.08R
MANTEO         CLEAR     47  45  94 CALM      30.09S

$$

NCZ045>047-081-094-103-104-030500-
CENTRAL COAST

CITY           SKY/WX    TMP DP  RH WIND       PRES   REMARKS
FRISCO         CLEAR     43  42  97 CALM      30.09S
SWANQUARTER      N/A     52 N/A N/A SW1       30.06S

$$

NCZ095-097-098-100-101-030500-
SOUTHERN COAST

CITY           SKY/WX    TMP DP  RH WIND       PRES   REMARKS
BEAUFORT       CLEAR     52  50  93 CALM      30.11S
CEDAR ISLAND     N/A     54 N/A N/A S1        30.15S
JACKSONVILLE   CLEAR     58  55  90 S3        30.11S
PINEY ISLAND   CLEAR    N/A N/A N/A SW5       30.11R
WILMINGTON     CLEAR     56  54  93 CALM      30.12R


$$

NCZ011>013-027>030-043-044-078>080-089-090>093-098-030500-
COASTAL PLAIN

CITY           SKY/WX    TMP DP  RH WIND       PRES   REMARKS
AHOSKIE        CLEAR     50  49  95 CALM      30.10S
CLINTON        CLEAR     53  53 100 CALM      30.11S
ELIZABETHTOWN  CLOUDY    59  52  78 SE3       30.12R
GOLDSBORO      CLEAR     54  53  94 CALM      30.09R
GREENVILLE     CLEAR     54  52  94 CALM      30.12R
HAVELOCK       CLEAR     53  48  83 S3        30.12S
KENANSVILLE    CLEAR     50  49  96 CALM      30.12S
KINSTON        CLEAR     52  51  97 CALM      30.12R
NEW BERN       CLEAR     53  50  89 CALM      30.12S
RICHLANDS      CLEAR     52  46  82 CALM      30.12S
ROCKY MOUNT    CLEAR     52  51  97 CALM      30.10S
WASHINGTON     CLEAR     55  51  87 CALM      30.11S
WHITEVILLE     PTCLDY    56  53  87 CALM      30.11S

$$

AMZ130-135-150-152-154-156-158-170-250-252-270-ANZ085-086-088-633-658-670-030500-
MARINE OBSERVATIONS

STATION/POSITION TIME  TEMP    WIND        PRES    WAVE   SWELL
                       AIR SEA DIR/SP/G            HT/PER HT/PER
                 (UTC) (F)     (DEG/KT/KT) (MB)    (FT/S) (FT/S)
CHESAPEAKE LIGHT 0400   52     190/  9/ 10 1019.0
64 E VA BEACH    0350   57 63  350/  4/  6 1017.7    8/11   8/11
DUCK             0300          140/  5/  5   N/A
2 E DUCK         0311      54                N/A     6/11   5/11
OREGON INLET     0300   52 57   CALM  /  1 1018.6
13E OREGON INLT  0400      50                N/A     9/11   7/11
HATTERAS CG      0306   55 62  170/  1/  2 1018.4
DIAMOND BUOY     0350   55 73  350/  8/ 10 1018.9    6/11   7/11
CAPE LOOKOUT     0400   60      10/  2/  2 1019.4
BEAUFORT LAB     0306   58 62   CALM  /  1 1018.8
27 SE WRIGHTSVLE 0400   65 71  340/  8/ 10   N/A
5 SE WRIGHTSVLE  0308   65 66  270/  6/ 10 1019.5
225 S CAPE HAT   0350   65 69  350/ 19/ 23 1018.4   11/10   8/10
41 SE CHARLESTON 0350   70 72  210/  6/  8 1019.4    3/11   2/11

$$



USA.gov is the U.S. government's official web portal to all federal, state and local government web resources and services.